Lake Martin Weather Center

Moon Phase Calendar



Lake Martin Water Level
Online Cameras

 


      

Current Conditions in Dadeville
10/21/2021 7:04:50 AM

63°F
Feels Like 64
Clouds
Humidity
100%
Pressure
30.18"
Wind
0
Dew Point
63°F
UV Index
0/10 (Low)
Visibility
6 mi

Hourly Forecast

Date & Time Thu, Oct 21
7:00 AM
Thu, Oct 21
8:00 AM
Thu, Oct 21
9:00 AM
Thu, Oct 21
10:00 AM
Thu, Oct 21
11:00 AM
Thu, Oct 21
12:00 PM
Thu, Oct 21
1:00 PM
Thu, Oct 21
2:00 PM
Thu, Oct 21
3:00 PM
Thu, Oct 21
4:00 PM
Thu, Oct 21
5:00 PM
Thu, Oct 21
6:00 PM
Thu, Oct 21
7:00 PM
Thu, Oct 21
8:00 PM
Thu, Oct 21
9:00 PM
Thu, Oct 21
10:00 PM
Thu, Oct 21
11:00 PM
Fri, Oct 22
12:00 AM
Fri, Oct 22
1:00 AM
Fri, Oct 22
2:00 AM
Fri, Oct 22
3:00 AM
Fri, Oct 22
4:00 AM
Fri, Oct 22
5:00 AM
Fri, Oct 22
6:00 AM
Fri, Oct 22
7:00 AM
Fri, Oct 22
8:00 AM
Fri, Oct 22
9:00 AM
Fri, Oct 22
10:00 AM
Fri, Oct 22
11:00 AM
Fri, Oct 22
12:00 PM
Fri, Oct 22
1:00 PM
Fri, Oct 22
2:00 PM
Fri, Oct 22
3:00 PM
Fri, Oct 22
4:00 PM
Fri, Oct 22
5:00 PM
Fri, Oct 22
6:00 PM
Fri, Oct 22
7:00 PM
Fri, Oct 22
8:00 PM
Fri, Oct 22
9:00 PM
Fri, Oct 22
10:00 PM
Fri, Oct 22
11:00 PM
Sat, Oct 23
12:00 AM
Sat, Oct 23
1:00 AM
Sat, Oct 23
2:00 AM
Sat, Oct 23
3:00 AM
Sat, Oct 23
4:00 AM
Sat, Oct 23
5:00 AM
Sat, Oct 23
6:00 AM
Condition
Clouds

Rain

Rain

Rain

Clouds

Clouds

Clouds

Clouds

Clouds

Clouds

Clouds

Rain

Rain

Rain

Rain

Rain

Rain

Clouds

Clouds

Clouds

Clouds

Clouds

Clouds

Clouds

Clouds

Clouds

Clouds

Clouds

Clouds

Clouds

Clouds

Clear

Clear

Clouds

Clouds

Clouds

Clouds

Clear

Clear

Clear

Clear

Clear

Clear

Clear

Clear

Clear

Clear

Clear
Temperature 63°F63°F64°F68°F73°F78°F80°F80°F80°F78°F76°F73°F71°F70°F69°F67°F65°F65°F65°F65°F63°F61°F60°F58°F57°F59°F63°F67°F72°F74°F76°F77°F76°F75°F71°F64°F62°F60°F59°F58°F57°F56°F55°F55°F54°F54°F54°F53°F
Feels Like 64°F64°F65°F68°F73°F78°F80°F82°F80°F79°F76°F73°F72°F71°F69°F67°F66°F65°F66°F65°F63°F61°F60°F58°F56°F58°F62°F66°F70°F73°F75°F75°F75°F74°F70°F63°F60°F59°F58°F56°F56°F55°F54°F53°F53°F53°F52°F52°F
Cloudiness 75%80%82%77%73%65%62%55%66%74%78%82%85%100%100%90%92%93%94%95%97%94%94%95%92%75%44%30%22%18%15%2%4%12%17%33%36%2%1%1%1%0%0%0%0%0%0%0%
Visibility 6 mi6 mi6 mi6 mi6 mi6 mi6 mi6 mi6 mi6 mi6 mi6 mi6 mi6 mi6 mi6 mi6 mi6 mi6 mi6 mi6 mi6 mi6 mi6 mi6 mi6 mi6 mi6 mi6 mi6 mi6 mi6 mi6 mi6 mi6 mi6 mi6 mi6 mi6 mi6 mi6 mi6 mi6 mi6 mi6 mi6 mi6 mi6 mi
Precipitation 66%61%65%65%61%58%58%48%40%39%36%39%50%74%90%99%97%76%76%10%7%3%3%0%0%0%0%0%0%0%0%0%0%0%0%0%0%0%0%0%0%0%0%0%0%0%0%0%
Humidity 100%97%94%85%71%58%57%56%57%62%70%76%79%86%91%94%95%95%94%95%96%96%94%91%89%86%72%55%41%36%34%33%33%36%48%58%62%64%67%70%73%74%76%77%77%77%77%77%
Dew Point 63°F62°F63°F63°F63°F62°F63°F63°F63°F64°F65°F64°F64°F65°F66°F64°F63°F63°F63°F63°F61°F59°F57°F55°F53°F54°F53°F50°F47°F45°F45°F45°F45°F46°F50°F49°F48°F48°F48°F48°F48°F48°F47°F47°F47°F47°F46°F46°F
Pressure 30.18"30.18"30.18"30.18"30.15"30.12"30.09"30.06"30.03"30.03"30.03"30.03"30.06"30.06"30.06"30.06"30.06"30.06"30.03"30.03"30.03"30.03"30.03"30.03"30.06"30.09"30.09"30.09"30.09"30.06"30.03"30.03"30"30"30"30.03"30.03"30.06"30.06"30.06"30.06"30.06"30.06"30.06"30.06"30.06"30.06"30.06"
Wind Speed 4 mph3.7 mph4.5 mph6 mph6.8 mph8 mph8.1 mph8.2 mph8.2 mph6.5 mph5 mph4.7 mph4.6 mph3.9 mph3.7 mph3.8 mph3.6 mph3.9 mph3.7 mph3.5 mph4 mph4.2 mph4.3 mph4.1 mph4.2 mph4.1 mph4.6 mph5 mph5.5 mph5.9 mph6.6 mph7.1 mph7.2 mph6.9 mph5.1 mph4.9 mph4.9 mph5 mph4.8 mph4.6 mph4.2 mph4.1 mph3.5 mph3.2 mph3.5 mph3.4 mph3.6 mph3.7 mph
Wind
Direction
189°
S
205°
SSW
208°
SSW
207°
SSW
216°
SW
221°
SW
225°
SW
229°
SW
234°
SW
234°
SW
224°
SW
219°
SW
195°
SSW
203°
SSW
220°
SW
270°
W
311°
NW
322°
NW
338°
NNW
327°
NNW
332°
NNW
338°
NNW
338°
NNW
339°
NNW
343°
NNW
340°
NNW
335°
NNW
322°
NW
309°
NW
301°
WNW
296°
WNW
297°
WNW
304°
NW
305°
NW
315°
NW
330°
NNW
341°
NNW
351°
N

N
10°
N
19°
NNE
22°
NNE
33°
NNE
39°
NE
24°
NNE
19°
NNE
19°
NNE
24°
NNE

Daily Forecast

Date High Low Precip. Humidity
Today
Oct 21

Rain
80 °F
61 °F
99%
58%
Friday
Oct 22

Clouds
77 °F
57 °F
76%
36%
Saturday
Oct 23

Clear
80 °F
53 °F
0%
35%
Sunday
Oct 24

Clear
82 °F
56 °F
0%
38%
Monday
Oct 25

Rain
82 °F
64 °F
20%
60%
Tuesday
Oct 26

Rain
84 °F
70 °F
34%
53%
Wednesday
Oct 27

Rain
78 °F
67 °F
100%
70%
Thursday
Oct 28

Rain
70 °F
56 °F
100%
38%
Friday
Oct 29

Clear
64 °F
50 °F
0%
37%
Saturday
Oct 30

Clear
65 °F
43 °F
0%
29%
Sunday
Oct 31

Clear
74 °F
48 °F
0%
35%
Monday
Nov 1

Clear
77 °F
54 °F
0%
42%
Tuesday
Nov 2

Rain
73 °F
57 °F
47%
68%
Wednesday
Nov 3

Clear
75 °F
54 °F
0%
45%
Thursday
Nov 4

Clouds
74 °F
57 °F
0%
72%
Friday
Nov 5

Clouds
79 °F
58 °F
0%
47%

Temperature 8-14 Day Outlook



Precipitation 8-14 Day Outlook






About Us
Contact Us
Site Map
Search Site
Advertise With Us
   
www.LakeMartin.com
THE LAKE MARTIN WEBSITE

Copyright 2021, Lakes Online
Privacy    |    Legal